EN

Hourly Weather Sandown

Today, 24 July, Saturday

Time Temperature Precipitation Wind Pressure Humidity
00:00 +16°C° 0 mm 9 mps 754 mmHg 88%
01:00 +16°C° 2.4 mm 8 mps 754 mmHg 90%
02:00 +16°C° 2.4 mm 8 mps 754 mmHg 91%
03:00 +16°C° 2.4 mm 8 mps 753 mmHg 93%
04:00 +16°C° 0.4 mm 7 mps 753 mmHg 93%
05:00 +16°C° 0.4 mm 6 mps 753 mmHg 94%
06:00 +16°C° 0.4 mm 5 mps 753 mmHg 94%
07:00 +17°C° 0 mm 4 mps 753 mmHg 94%
08:00 +18°C° 0 mm 4 mps 753 mmHg 93%
09:00 +18°C° 0 mm 3 mps 754 mmHg 93%
10:00 +19°C° 0 mm 3 mps 754 mmHg 88%
11:00 +20°C° 0 mm 3 mps 754 mmHg 84%
12:00 +20°C° 0 mm 3 mps 754 mmHg 79%
13:00 +21°C° 0 mm 3 mps 754 mmHg 76%
14:00 +21°C° 0 mm 3 mps 754 mmHg 74%
15:00 +22°C° 0 mm 3 mps 754 mmHg 71%
16:00 +21°C° 0 mm 3 mps 754 mmHg 72%
17:00 +21°C° 0 mm 3 mps 754 mmHg 73%
18:00 +21°C° 0 mm 3 mps 754 mmHg 74%
19:00 +19°C° 0 mm 3 mps 754 mmHg 79%
20:00 +18°C° 0 mm 2 mps 754 mmHg 84%
21:00 +17°C° 0 mm 2 mps 754 mmHg 89%
22:00 +17°C° 0 mm 2 mps 754 mmHg 89%
23:00 +17°C° 0 mm 2 mps 754 mmHg 89%

Tomorrow, 25 July, Sunday

Time Temperature Precipitation Wind Pressure Humidity
00:00 +17°C° 0 mm 2 mps 753 mmHg 89%
01:00 +16°C° 0.1 mm 2 mps 753 mmHg 91%
02:00 +16°C° 0.1 mm 3 mps 753 mmHg 93%
03:00 +16°C° 0.1 mm 3 mps 753 mmHg 95%
04:00 +16°C° 0.1 mm 3 mps 753 mmHg 95%
05:00 +17°C° 0.1 mm 3 mps 753 mmHg 94%
06:00 +17°C° 0.1 mm 3 mps 753 mmHg 94%
07:00 +18°C° 0.1 mm 2 mps 753 mmHg 91%
08:00 +18°C° 0.1 mm 2 mps 754 mmHg 88%
09:00 +20°C° 0.1 mm 1 mps 754 mmHg 85%
10:00 +20°C° 0.5 mm 2 mps 754 mmHg 83%
11:00 +20°C° 0.5 mm 3 mps 754 mmHg 81%
12:00 +21°C° 0.5 mm 3 mps 754 mmHg 79%
13:00 +21°C° 0.5 mm 4 mps 754 mmHg 77%
14:00 +21°C° 0.5 mm 4 mps 754 mmHg 76%
15:00 +21°C° 0.5 mm 4 mps 754 mmHg 74%
16:00 +21°C° 0.2 mm 4 mps 754 mmHg 76%
17:00 +21°C° 0.2 mm 3 mps 754 mmHg 77%
18:00 +20°C° 0.2 mm 2 mps 754 mmHg 78%
19:00 +20°C° 0.1 mm 2 mps 755 mmHg 81%
20:00 +19°C° 0.1 mm 2 mps 755 mmHg 84%
21:00 +18°C° 0.1 mm 2 mps 755 mmHg 87%
22:00 +18°C° 0 mm 2 mps 755 mmHg 87%
23:00 +17°C° 0 mm 2 mps 756 mmHg 88%

Day after tomorrow, 26 July, Monday

Time Temperature Precipitation Wind Pressure Humidity
00:00 +17°C° 0 mm 2 mps 756 mmHg 89%
01:00 +17°C° 0 mm 2 mps 756 mmHg 88%
02:00 +17°C° 0 mm 2 mps 756 mmHg 87%
03:00 +17°C° 0 mm 3 mps 756 mmHg 86%
04:00 +17°C° 0 mm 2 mps 756 mmHg 86%
05:00 +17°C° 0 mm 2 mps 756 mmHg 86%
06:00 +17°C° 0 mm 2 mps 756 mmHg 86%
07:00 +19°C° 0 mm 3 mps 756 mmHg 79%
08:00 +20°C° 0 mm 3 mps 757 mmHg 72%
09:00 +21°C° 0 mm 3 mps 757 mmHg 66%
10:00 +22°C° 0 mm 4 mps 757 mmHg 63%
11:00 +23°C° 0 mm 5 mps 757 mmHg 61%
12:00 +23°C° 0 mm 5 mps 757 mmHg 59%
13:00 +23°C° 0 mm 6 mps 757 mmHg 62%
14:00 +23°C° 0 mm 6 mps 757 mmHg 66%
15:00 +23°C° 0 mm 7 mps 757 mmHg 69%
16:00 +22°C° 0.2 mm 6 mps 756 mmHg 73%
17:00 +21°C° 0.2 mm 6 mps 756 mmHg 77%
18:00 +20°C° 0.2 mm 6 mps 756 mmHg 82%
19:00 +20°C° 0.2 mm 5 mps 756 mmHg 85%
20:00 +19°C° 0.2 mm 5 mps 757 mmHg 89%
21:00 +17°C° 0.2 mm 5 mps 757 mmHg 92%
22:00 +16°C° 0.1 mm 5 mps 757 mmHg 93%
23:00 +16°C° 0.1 mm 5 mps 757 mmHg 93%

27 July, Tuesday

Time Temperature Precipitation Wind Pressure Humidity
00:00 +16°C° 0.1 mm 5 mps 756 mmHg 94%
01:00 +16°C° 0 mm 5 mps 756 mmHg 95%
02:00 +16°C° 0 mm 5 mps 756 mmHg 95%
03:00 +16°C° 0 mm 5 mps 756 mmHg 96%
04:00 +16°C° 0 mm 5 mps 756 mmHg 95%
05:00 +16°C° 0 mm 5 mps 756 mmHg 95%
06:00 +17°C° 0 mm 4 mps 756 mmHg 94%
07:00 +19°C° 0 mm 5 mps 756 mmHg 87%
08:00 +20°C° 0 mm 5 mps 756 mmHg 80%
09:00 +21°C° 0 mm 5 mps 756 mmHg 73%
10:00 +21°C° 0 mm 5 mps 756 mmHg 71%
11:00 +22°C° 0 mm 6 mps 756 mmHg 68%
12:00 +22°C° 0 mm 6 mps 756 mmHg 66%
13:00 +22°C° 0 mm 6 mps 756 mmHg 68%
14:00 +21°C° 0 mm 6 mps 756 mmHg 70%
15:00 +21°C° 0 mm 6 mps 756 mmHg 72%
16:00 +21°C° 0 mm 6 mps 756 mmHg 75%
17:00 +20°C° 0 mm 6 mps 756 mmHg 78%
18:00 +20°C° 0 mm 6 mps 755 mmHg 81%
19:00 +19°C° 0 mm 6 mps 755 mmHg 85%
20:00 +17°C° 0 mm 6 mps 755 mmHg 89%
21:00 +16°C° 0 mm 6 mps 755 mmHg 93%
22:00 +16°C° 0 mm 6 mps 755 mmHg 92%
23:00 +15°C° 0 mm 5 mps 755 mmHg 91%

28 July, Wednesday

Time Temperature Precipitation Wind Pressure Humidity
00:00 +15°C° 0 mm 5 mps 755 mmHg 90%
01:00 +14°C° 0 mm 5 mps 755 mmHg 91%
02:00 +14°C° 0 mm 5 mps 755 mmHg 92%
03:00 +13°C° 0 mm 6 mps 755 mmHg 92%
04:00 +14°C° 0.1 mm 6 mps 755 mmHg 91%
05:00 +14°C° 0.1 mm 6 mps 755 mmHg 89%
06:00 +14°C° 0.1 mm 7 mps 755 mmHg 87%
07:00 +15°C° 0 mm 7 mps 755 mmHg 82%
08:00 +17°C° 0 mm 8 mps 755 mmHg 77%
09:00 +18°C° 0 mm 8 mps 755 mmHg 72%
10:00 +18°C° 0.1 mm 9 mps 755 mmHg 71%
11:00 +18°C° 0.1 mm 10 mps 755 mmHg 71%
12:00 +18°C° 0.1 mm 10 mps 755 mmHg 71%
13:00 +18°C° 0.2 mm 11 mps 755 mmHg 72%
14:00 +18°C° 0.2 mm 11 mps 755 mmHg 72%
15:00 +18°C° 0.2 mm 11 mps 755 mmHg 72%
16:00 +18°C° 0 mm 11 mps 755 mmHg 74%
17:00 +17°C° 0 mm 10 mps 755 mmHg 75%
18:00 +17°C° 0 mm 10 mps 755 mmHg 77%
19:00 +16°C° 0 mm 10 mps 755 mmHg 78%
20:00 +15°C° 0 mm 9 mps 755 mmHg 79%
21:00 +15°C° 0 mm 9 mps 755 mmHg 80%
22:00 +15°C° 0 mm 9 mps 755 mmHg 81%
23:00 +13°C° 0 mm 9 mps 755 mmHg 82%

29 July, Thursday

Time Temperature Precipitation Wind Pressure Humidity
00:00 +13°C° 0 mm 9 mps 755 mmHg 82%
01:00 +13°C° 0.2 mm 9 mps 755 mmHg 84%
02:00 +13°C° 0.2 mm 9 mps 754 mmHg 85%
03:00 +13°C° 0.2 mm 9 mps 754 mmHg 87%
04:00 +13°C° 0.5 mm 9 mps 754 mmHg 87%
05:00 +13°C° 0.5 mm 10 mps 754 mmHg 86%
06:00 +13°C° 0.5 mm 10 mps 753 mmHg 86%
07:00 +14°C° 0.1 mm 10 mps 753 mmHg 80%
08:00 +16°C° 0.1 mm 10 mps 754 mmHg 74%
09:00 +17°C° 0.1 mm 10 mps 754 mmHg 68%
10:00 +17°C° 0.2 mm 11 mps 753 mmHg 72%
11:00 +17°C° 0.2 mm 12 mps 753 mmHg 76%
12:00 +17°C° 0.2 mm 13 mps 753 mmHg 80%
13:00 +15°C° 0.3 mm 13 mps 753 mmHg 82%
14:00 +15°C° 0.3 mm 13 mps 753 mmHg 83%
15:00 +14°C° 0.3 mm 13 mps 753 mmHg 85%
16:00 +15°C° 0.1 mm 13 mps 753 mmHg 83%
17:00 +15°C° 0.1 mm 12 mps 753 mmHg 81%
18:00 +17°C° 0.1 mm 12 mps 753 mmHg 79%
19:00 +16°C° 0 mm 11 mps 754 mmHg 79%
20:00 +14°C° 0 mm 10 mps 754 mmHg 79%
21:00 +13°C° 0 mm 9 mps 755 mmHg 79%
22:00 +13°C° 0 mm 9 mps 755 mmHg 84%
23:00 +12°C° 0 mm 8 mps 756 mmHg 89%
Show more